Preview of NWS' New Version of Forecast
This preview is not operational and should not be used for support decisions.

Regional Weather Roundup (RWR)

Issued by National Weather Service (NWS)

                            
000
ASUS43 KLSX 240707
RWRMO 

WEATHER SUMMARY FOR MISSOURI
NATIONAL WEATHER SERVICE SPRINGFIELD MO
200 AM CDT WED APR 24 2019

NOTE: "FAIR" INDICATES FEW OR NO CLOUDS BELOW 12,000 FEET WITH NO
       SIGNIFICANT WEATHER AND/OR OBSTRUCTIONS TO VISIBILITY.
       CURRENT SKY AND/OR WEATHER CONDITIONS ARE NOT AVAILABLE FOR
       CHILLICOTHE AND FARMINGTON.

MOZ001>031-035>038-043-044-053-054-240800-
...NORTHERN AND WESTERN MISSOURI...
  
CITY           SKY/WX    TMP DP  RH WIND       PRES   REMARKS
KANSAS CTY INT CLOUDY    52  50  93 N3        29.97F                  
KANSAS C DTWN  CLOUDY    55  51  86 N5        29.96F                  
LEE'S SUMMIT   CLOUDY    53  50  89 N3        29.96F                  
ST JOSEPH      CLOUDY    52  50  93 N5        29.98F                  
CHILLICOTHE      N/A     53  48  83 CALM      29.99F                  
KIRKSVILLE     CLOUDY    51  49  92 S5        29.99S                  
     
$$
MOZ066>068-077>081-088>096-101>105-240800-
...SOUTHWEST MISSOURI...
  
CITY           SKY/WX    TMP DP  RH WIND       PRES   REMARKS
SPRINGFIELD    CLOUDY    59  57  93 CALM      29.93F                  
JOPLIN         CLOUDY    56  55  97 NW5       29.96S FOG              
BRANSON        CLOUDY    57  57 100 CALM      29.95S FOG              
               
$$
MOZ032>034-039>042-045>050-055>058-069>072-240800-
...CENTRAL MISSOURI...  
  
CITY           SKY/WX    TMP DP  RH WIND       PRES   REMARKS
COLUMBIA       CLOUDY    56  53  90 E5        29.95F FOG              
JEFFERSON CITY LGT RAIN  57  54  89 E6        29.95F                  
ROLLA          LGT RAIN  56  54  93 E12       29.94F FOG              
SEDALIA        CLOUDY    52  52 100 CALM      29.96S FOG              
WHITEMAN AFB   MOCLDY    54  54 100 CALM      29.92S                  
WARRENSBURG    DRIZZLE   52  52 100 CALM      29.96F                  
OSAGE BEACH    LGT RAIN  56  56 100 E5        29.95F                  
               
$$
MOZ051-052-059>065-240800-
...EAST CENTRAL MISSOURI...
  
CITY           SKY/WX    TMP DP  RH WIND       PRES   REMARKS
ST LOUIS INTL  CLOUDY    58  54  86 E9        29.98F                  
SPIRIT OF STL  LGT RAIN  58  56  93 E3        29.96F                  
ST CHARLES     MOCLDY    56  54  93 E5        29.98S                  
                   
$$
MOZ072>076-082>087-097>100-106>115-240800-
...SOUTH CENTRAL AND SOUTHEAST MISSOURI...
  
CITY           SKY/WX    TMP DP  RH WIND       PRES   REMARKS
CAPE GIRARDEAU FAIR      61  58  90 E3        29.95S                  
POPLAR BLUFF   FAIR      60  59  96 CALM      29.94S                  
WEST PLAINS    CLOUDY    61  57  87 CALM      29.94F                  
                                       
$$